GW1163 Weather Reports


time (UTC)temp
C
wind
direction
speed
KPH
gust
KPH
rain 1hr
cm
rain 24hr
cm
rain mn
cm
humidity
%
barometer
mb
20260509150536 22 0 0.0 3.2 0.00 0.00 0.00 81 1013.9
20260509150046 22 169 0.0 3.2 0.00 0.00 0.00 82 1013.9
20260509145539 22 0 0.0 3.2 0.00 0.00 0.00 81 1013.9
20260509145039 22 0 0.0 1.6 0.00 0.00 0.00 82 1013.9
20260509144543 22 0 0.0 6.4 0.00 0.00 0.00 82 1013.9
20260509144036 22 0 0.0 6.4 0.00 0.00 0.00 82 1013.7
20260509143537 22 169 0.0 4.8 0.00 0.00 0.00 82 1013.7
20260509143048 22 0 0.0 3.2 0.00 0.00 0.00 83 1013.7
20260509142536 22 244 0.0 3.2 0.00 0.00 0.00 82 1013.7
20260509142036 22 0 0.0 3.2 0.00 0.00 0.00 82 1013.5
20260509141547 22 0 0.0 3.2 0.00 0.00 0.00 82 1013.5
20260509141037 22 0 0.0 3.2 0.00 0.00 0.00 82 1013.5
20260509140536 22 0 0.0 3.2 0.00 0.00 0.00 83 1013.3
20260509140056 22 244 0.0 4.8 0.00 0.00 0.00 82 1013.5
20260509135540 22 0 0.0 4.8 0.00 0.00 0.00 82 1013.4
20260509135035 21 244 0.0 4.8 0.00 0.00 0.00 82 1013.4
20260509134557 22 244 0.0 4.8 0.00 0.00 0.00 82 1013.4
20260509134035 22 0 0.0 4.8 0.00 0.00 0.00 82 1013.3
20260509133536 21 322 0.0 3.2 0.00 0.00 0.00 82 1013.4
20260509133049 21 0 0.0 3.2 0.00 0.00 0.00 83 1013.5
20260509132536 21 0 0.0 3.2 0.00 0.00 0.00 82 1013.4
20260509132040 21 0 0.0 1.6 0.00 0.00 0.00 83 1013.6
20260509131551 21 0 0.0 0.0 0.00 0.00 0.00 83 1013.7
20260509131039 21 0 0.0 3.2 0.00 0.00 0.00 83 1013.7
20260509130536 21 0 0.0 3.2 0.00 0.00 0.00 83 1013.6
20260509130052 21 0 0.0 3.2 0.00 0.00 0.00 83 1013.7
20260509125536 21 0 0.0 0.0 0.00 0.00 0.00 83 1013.7
20260509125040 21 0 0.0 3.2 0.00 0.00 0.00 83 1013.7
20260509124546 21 0 0.0 3.2 0.00 0.00 0.00 83 1013.8
20260509124036 21 340 0.0 3.2 0.00 0.00 0.00 83 1013.9
20260509123539 21 340 0.0 3.2 0.00 0.00 0.00 83 1013.8
20260509123046 21 0 0.0 3.2 0.00 0.00 0.00 83 1013.8
20260509122536 20 0 0.0 3.2 0.00 0.00 0.00 84 1013.8
20260509122036 20 0 0.0 3.2 0.00 0.00 0.00 84 1013.8
20260509121547 20 335 0.0 3.2 0.00 0.00 0.00 84 1013.7
20260509121037 20 0 0.0 3.2 0.00 0.00 0.00 84 1013.7
20260509120537 20 335 0.0 3.2 0.00 0.00 0.00 85 1013.7
20260509120054 20 0 0.0 3.2 0.00 0.00 0.00 86 1013.5
20260509115539 19 333 0.0 3.2 0.00 0.00 0.00 86 1013.5
20260509115036 18 333 1.6 3.2 0.00 0.00 0.00 88 1013.5
20260509114547 18 0 0.0 0.0 0.00 0.00 0.00 88 1013.3
20260509114036 18 0 0.0 0.0 0.00 0.00 0.00 89 1013.2
20260509113536 18 0 0.0 0.0 0.00 0.00 0.00 89 1013.2
20260509113048 17 0 0.0 0.0 0.00 0.00 0.00 89 1013.3
20260509112536 17 0 0.0 0.0 0.00 0.00 0.00 89 1013.2
20260509112036 17 0 0.0 0.0 0.00 0.00 0.00 89 1013.2
20260509111551 17 0 0.0 0.0 0.00 0.00 0.00 89 1013.2
20260509111036 17 0 0.0 0.0 0.00 0.00 0.00 90 1013.1
20260509110535 17 0 0.0 0.0 0.00 0.00 0.00 90 1013.1
20260509110049 17 0 0.0 0.0 0.00 0.00 0.00 90 1013.0
20260509105536 17 0 0.0 0.0 0.00 0.00 0.00 90 1013.0
20260509105039 17 0 0.0 0.0 0.00 0.00 0.00 90 1012.8
20260509104550 17 0 0.0 0.0 0.00 0.00 0.00 90 1012.8
20260509104036 17 0 0.0 0.0 0.00 0.00 0.00 90 1012.8
20260509103535 17 0 0.0 0.0 0.00 0.00 0.00 89 1012.7
20260509103047 17 0 0.0 0.0 0.00 0.00 0.00 89 1012.6
20260509102536 17 0 0.0 0.0 0.00 0.00 0.00 89 1012.5
20260509102037 17 0 0.0 0.0 0.00 0.00 0.00 89 1012.5
20260509101556 17 0 0.0 0.0 0.00 0.00 0.00 89 1012.4
20260509101037 17 0 0.0 0.0 0.00 0.00 0.00 88 1012.7
20260509100536 17 0 0.0 0.0 0.00 0.00 0.00 88 1012.4
20260509100048 17 0 0.0 0.0 0.00 0.00 0.00 88 1012.4
20260509095536 17 0 0.0 0.0 0.00 0.00 0.00 88 1012.5
20260509095035 17 0 0.0 0.0 0.00 0.00 0.00 88 1012.7
20260509094547 17 0 0.0 0.0 0.00 0.00 0.00 88 1012.9
20260509094038 17 0 0.0 0.0 0.00 0.00 0.00 88 1012.6
20260509093541 17 0 0.0 0.0 0.00 0.00 0.00 88 1012.5
20260509093055 17 0 0.0 0.0 0.00 0.00 0.00 88 1012.5
20260509092538 17 0 0.0 0.0 0.00 0.00 0.00 88 1012.7
20260509092038 17 0 0.0 0.0 0.00 0.00 0.00 87 1012.6
20260509091548 17 0 0.0 0.0 0.00 0.00 0.00 87 1012.8
20260509091036 17 0 0.0 0.0 0.00 0.00 0.00 87 1012.8
20260509090537 17 0 0.0 0.0 0.00 0.00 0.00 87 1013.0
20260509090047 18 0 0.0 0.0 0.00 0.00 0.00 86 1013.1
20260509085536 18 0 0.0 0.0 0.00 0.00 0.00 86 1012.9
20260509085039 18 0 0.0 0.0 0.00 0.00 0.00 86 1013.0
20260509084554 18 0 0.0 0.0 0.00 0.00 0.00 86 1013.1
20260509084035 18 0 0.0 1.6 0.00 0.00 0.00 86 1012.9
20260509083535 18 0 0.0 1.6 0.00 0.00 0.00 86 1012.8
20260509083044 18 0 0.0 0.0 0.00 0.00 0.00 86 1012.9
20260509082536 18 0 0.0 0.0 0.00 0.00 0.00 87 1013.2
20260509082039 18 0 0.0 0.0 0.00 0.00 0.00 87 1013.2
20260509081547 18 0 0.0 0.0 0.00 0.00 0.00 87 1013.3
20260509081039 18 0 0.0 0.0 0.00 0.00 0.00 87 1013.2
20260509080535 18 0 0.0 0.0 0.00 0.00 0.00 87 1012.9
20260509080055 18 0 0.0 0.0 0.00 0.00 0.00 87 1012.9
20260509075536 18 0 0.0 0.0 0.00 0.00 0.00 86 1013.0
20260509075041 18 0 0.0 3.2 0.00 0.00 0.00 86 1013.3
20260509074548 18 0 0.0 3.2 0.00 0.00 0.00 86 1013.4
20260509074036 18 188 0.0 3.2 0.00 0.00 0.00 86 1013.5
20260509073536 18 0 0.0 1.6 0.00 0.00 0.00 86 1013.7
20260509073048 18 0 0.0 1.6 0.00 0.00 0.00 86 1013.4
20260509072539 18 0 0.0 3.2 0.00 0.00 0.00 86 1013.2
20260509072035 18 0 0.0 3.2 0.00 0.00 0.00 86 1013.1
20260509071548 18 188 0.0 3.2 0.00 0.00 0.00 86 1012.8
20260509071039 18 0 0.0 3.2 0.00 0.00 0.00 86 1012.8
20260509070537 18 188 0.0 3.2 0.00 0.00 0.00 85 1012.7
20260509070054 18 0 0.0 3.2 0.00 0.00 0.00 85 1012.9
20260509065535 18 188 0.0 1.6 0.00 0.00 0.00 85 1013.0
20260509065037 18 0 0.0 0.0 0.00 0.00 0.00 85 1013.2
20260509064546 18 0 0.0 3.2 0.00 0.00 0.00 85 1013.2
20260509064037 18 0 0.0 3.2 0.00 0.00 0.00 85 1013.5
20260509063536 18 0 0.0 1.6 0.00 0.00 0.00 85 1013.4
20260509063049 18 0 0.0 3.2 0.00 0.00 0.00 85 1013.7
20260509062536 18 0 0.0 3.2 0.00 0.00 0.00 83 1013.8
20260509062037 19 0 0.0 3.2 0.00 0.00 0.00 83 1014.1
20260509061552 19 0 0.0 3.2 0.00 0.00 0.00 82 1014.1
20260509061036 19 0 0.0 1.6 0.00 0.00 0.00 82 1013.6
20260509060536 19 0 0.0 1.6 0.00 0.00 0.00 82 1013.6
20260509060049 19 0 0.0 8.0 0.00 0.00 0.00 81 1013.7
20260509055536 19 0 0.0 8.0 0.00 0.00 0.00 81 1014.2
20260509055035 19 0 1.6 8.0 0.00 0.00 0.00 81 1014.1
20260509054554 19 46 1.6 8.0 0.00 0.00 0.00 81 1014.2
20260509054036 19 186 3.2 8.0 0.00 0.00 0.00 80 1013.9
20260509053537 18 182 1.6 6.4 0.00 0.00 0.00 81 1013.8
20260509053047 18 175 0.0 4.8 0.00 0.00 0.00 82 1014.1
20260509052537 18 175 0.0 1.6 0.00 0.00 0.00 82 1014.2
20260509052040 18 0 0.0 0.0 0.00 0.00 0.00 81 1014.5
20260509051557 18 0 0.0 0.0 0.00 0.00 0.00 81 1014.8
20260509051036 18 0 0.0 1.6 0.00 0.00 0.00 81 1015.0
20260509050536 18 0 0.0 1.6 0.00 0.00 0.00 81 1015.0
20260509050048 18 0 0.0 0.0 0.00 0.00 0.00 81 1015.4
20260509045536 18 0 0.0 0.0 0.00 0.00 0.00 80 1015.3
20260509045036 18 0 0.0 0.0 0.00 0.00 0.00 80 1015.5
20260509044548 18 0 0.0 1.6 0.00 0.00 0.00 81 1015.4
20260509044036 18 0 0.0 1.6 0.00 0.00 0.00 81 1015.4
20260509043536 18 0 0.0 3.2 0.00 0.00 0.00 81 1015.3
20260509043050 18 0 0.0 3.2 0.00 0.00 0.00 81 1015.1
20260509042537 18 169 0.0 1.6 0.00 0.00 0.00 81 1015.2
20260509042036 18 0 0.0 0.0 0.00 0.00 0.00 81 1014.6
20260509041551 18 0 0.0 0.0 0.00 0.00 0.00 81 1015.1
20260509041036 18 0 0.0 0.0 0.00 0.00 0.00 81 1015.3
20260509040536 18 0 0.0 0.0 0.00 0.00 0.00 81 1015.6
20260509040049 18 0 0.0 0.0 0.00 0.00 0.00 81 1015.8
20260509035539 18 0 0.0 0.0 0.00 0.00 0.00 81 1015.9
20260509035036 18 0 0.0 0.0 0.00 0.00 0.00 80 1015.7
20260509034550 18 0 0.0 0.0 0.00 0.00 0.00 80 1015.9
20260509034035 18 0 0.0 0.0 0.00 0.00 0.00 80 1016.0
20260509033537 18 0 0.0 0.0 0.00 0.00 0.00 80 1016.0
20260509033100 18 0 0.0 0.0 0.00 0.00 0.00 79 1016.0
20260509032536 18 0 0.0 0.0 0.00 0.00 0.00 79 1015.9
20260509032036 18 0 0.0 0.0 0.00 0.00 0.00 79 1016.0
20260509031552 18 0 0.0 0.0 0.00 0.00 0.00 79 1016.0
20260509031036 18 0 0.0 0.0 0.00 0.00 0.00 79 1016.0
20260509030540 18 0 0.0 0.0 0.00 0.00 0.00 79 1016.1
20260509030052 18 0 0.0 0.0 0.00 0.00 0.00 79 1016.1
20260509025536 18 0 0.0 0.0 0.00 0.00 0.00 79 1016.3
20260509025038 18 0 0.0 0.0 0.00 0.00 0.00 78 1016.3
20260509024546 18 0 0.0 0.0 0.00 0.00 0.00 78 1016.4
20260509024036 18 0 0.0 0.0 0.00 0.00 0.00 78 1016.2
20260509023538 18 0 0.0 0.0 0.00 0.00 0.00 78 1016.0
20260509023047 18 0 0.0 0.0 0.00 0.00 0.00 78 1015.8
20260509022541 18 0 0.0 0.0 0.00 0.00 0.00 78 1015.9
20260509022040 18 0 0.0 0.0 0.00 0.00 0.00 78 1015.7
20260509021550 18 0 0.0 0.0 0.00 0.00 0.00 78 1015.7
20260509021036 18 0 0.0 0.0 0.00 0.00 0.00 78 1015.8
20260509020536 18 0 0.0 0.0 0.00 0.00 0.00 78 1015.7
20260509020047 18 0 0.0 0.0 0.00 0.00 0.00 77 1015.8
20260509015536 18 0 0.0 0.0 0.00 0.00 0.00 77 1015.9
20260509015037 18 0 0.0 0.0 0.00 0.00 0.00 77 1015.9
20260509014549 18 0 0.0 0.0 0.00 0.00 0.00 77 1015.9
20260509014036 18 0 0.0 0.0 0.00 0.00 0.00 76 1015.8
20260509013536 18 0 0.0 1.6 0.00 0.00 0.00 76 1015.7
20260509013053 18 0 0.0 1.6 0.00 0.00 0.00 76 1015.7
20260509012536 18 0 0.0 0.0 0.00 0.00 0.00 76 1015.4
20260509012036 18 0 0.0 0.0 0.00 0.00 0.00 76 1015.5
20260509011557 18 0 0.0 0.0 0.00 0.00 0.00 76 1015.6
20260509011042 18 0 0.0 0.0 0.00 0.00 0.00 75 1015.7
20260509010540 18 0 0.0 0.0 0.00 0.00 0.00 75 1015.6
20260509010051 18 0 0.0 0.0 0.00 0.00 0.00 75 1015.5
20260509005536 18 0 0.0 1.6 0.00 0.00 0.00 75 1015.6
20260509005040 18 0 0.0 1.6 0.00 0.00 0.00 75 1015.6
20260509004559 18 0 0.0 1.6 0.00 0.00 0.00 75 1015.4
20260509004037 18 0 0.0 4.8 0.00 0.00 0.00 75 1015.4
20260509003537 18 0 0.0 4.8 0.00 0.00 0.00 74 1015.4
20260509003049 18 0 0.0 6.4 0.00 0.00 0.00 74 1015.3
20260509002538 18 0 0.0 6.4 0.00 0.00 0.00 74 1015.1
20260509002037 18 0 1.6 6.4 0.00 0.00 0.00 74 1015.1
20260509001548 18 43 1.6 6.4 0.00 0.00 0.00 74 1015.0
20260509001037 18 71 1.6 6.4 0.00 0.00 0.00 73 1015.1
20260509000539 18 107 0.0 3.2 0.00 0.00 0.00 74 1015.1
20260509000049 18 0 0.0 4.8 0.00 0.00 0.00 73 1015.1
20260508235536 18 0 0.0 4.8 0.00 0.00 0.00 73 1015.1
20260508235039 18 0 0.0 4.8 0.00 0.00 0.00 73 1015.0
20260508234550 18 0 0.0 6.4 0.00 0.00 0.00 73 1015.0
20260508234039 18 0 0.0 6.4 0.00 0.00 0.00 73 1014.9
20260508233536 18 64 0.0 6.4 0.00 0.00 0.00 73 1014.9
20260508233052 18 0 0.0 4.8 0.00 0.00 0.00 73 1014.9
20260508232536 19 68 0.0 4.8 0.00 0.00 0.00 73 1014.9
20260508232038 19 16 0.0 3.2 0.00 0.00 0.00 73 1015.0
20260508231553 19 0 0.0 3.2 0.00 0.00 0.00 73 1015.1
20260508231037 19 0 0.0 3.2 0.00 0.00 0.00 73 1015.2
20260508230539 19 0 0.0 8.0 0.00 0.00 0.00 74 1015.2
20260508230054 19 0 1.6 9.7 0.00 0.00 0.00 74 1015.1
20260508225536 19 59 1.6 9.7 0.00 0.00 0.00 74 1015.0
20260508225039 19 59 1.6 6.4 0.00 0.00 0.00 74 1015.0
20260508224545 19 93 0.0 4.8 0.00 0.00 0.00 74 1014.8
20260508224036 19 113 1.6 4.8 0.00 0.00 0.00 74 1014.7
20260508223536 19 64 1.6 6.4 0.00 0.00 0.00 74 1014.9
20260508223052 19 14 0.0 9.7 0.00 0.00 0.00 73 1014.9
20260508222538 19 78 1.6 11.3 0.00 0.00 0.00 74 1014.8
20260508222036 19 0 1.6 11.3 0.00 0.00 0.00 74 1014.7
20260508221553 19 0 0.0 4.8 0.00 0.00 0.00 73 1014.8
20260508221037 19 355 1.6 6.4 0.00 0.00 0.00 72 1015.0
20260508220536 20 167 0.0 6.4 0.00 0.00 0.00 72 1015.1
20260508220048 19 163 0.0 6.4 0.00 0.00 0.00 72 1015.2
20260508215536 19 355 1.6 4.8 0.00 0.00 0.00 72 1015.0
20260508215038 20 0 1.6 6.4 0.00 0.00 0.00 72 1014.8
20260508214550 20 93 1.6 6.4 0.00 0.00 0.00 72 1014.9
20260508214040 20 76 1.6 8.0 0.00 0.00 0.00 71 1014.9
20260508213540 20 32 1.6 9.7 0.00 0.00 0.00 71 1014.9
20260508213049 20 0 1.6 9.7 0.00 0.00 0.00 72 1015.1
20260508212540 20 206 0.0 11.3 0.00 0.00 0.00 72 1015.3
20260508212038 20 188 4.8 11.3 0.00 0.00 0.00 71 1015.3
20260508211546 20 35 1.6 8.0 0.00 0.00 0.00 71 1015.3
20260508211037 20 215 3.2 12.9 0.00 0.00 0.00 72 1015.2
20260508210537 20 171 1.6 12.9 0.00 0.00 0.00 72 1015.2
20260508210046 20 36 1.6 9.7 0.00 0.00 0.00 71 1015.0
20260508205536 20 317 1.6 9.7 0.00 0.00 0.00 70 1015.0
20260508205037 20 94 1.6 9.7 0.00 0.00 0.00 71 1015.0
20260508204552 20 5 1.6 12.9 0.00 0.00 0.00 71 1015.0
20260508204036 20 105 1.6 12.9 0.00 0.00 0.00 70 1015.0
20260508203536 20 156 3.2 12.9 0.00 0.00 0.00 71 1015.1
20260508203053 20 173 1.6 9.7 0.00 0.00 0.00 70 1014.9
20260508202538 20 118 1.6 11.3 0.00 0.00 0.00 68 1014.9
20260508202037 20 98 1.6 11.3 0.00 0.00 0.00 67 1014.8
20260508201547 20 131 3.2 22.5 0.00 0.00 0.00 67 1015.0
20260508201036 20 90 4.8 22.5 0.00 0.00 0.00 66 1015.2
20260508200536 20 115 6.4 22.5 0.00 0.00 0.00 66 1015.4
20260508195536 21 84 1.6 11.3 0.00 0.10 0.00 65 1015.5
20260508195041 21 157 4.8 11.3 0.00 0.10 0.00 66 1015.6
20260508194555 21 139 4.8 11.3 0.00 0.10 0.00 61 1015.7
20260508194035 21 109 1.6 14.5 0.00 0.10 0.00 64 1015.7
20260508193536 22 123 4.8 14.5 0.00 0.10 0.00 61 1015.9
20260508193056 22 53 3.2 14.5 0.00 0.10 0.00 62 1015.6
20260508192537 21 190 3.2 11.3 0.00 0.10 0.00 62 1015.5
20260508192037 21 234 1.6 11.3 0.00 0.10 0.00 65 1015.6
20260508191552 21 242 3.2 12.9 0.00 0.10 0.00 62 1015.7
20260508191036 21 76 3.2 14.5 0.00 0.10 0.00 64 1015.8
20260508190539 21 200 3.2 14.5 0.00 0.10 0.00 63 1015.7
20260508190052 21 210 3.2 17.7 0.00 0.10 0.00 62 1015.8
20260508185536 21 234 6.4 17.7 0.00 0.10 0.00 63 1015.8
20260508185042 22 167 3.2 14.5 0.00 0.10 0.00 62 1015.9
20260508184553 22 10 3.2 16.1 0.00 0.10 0.00 61 1016.0
20260508184038 22 92 4.8 16.1 0.00 0.10 0.00 63 1016.0
20260508183536 22 123 3.2 14.5 0.00 0.10 0.00 64 1016.1
20260508183049 22 71 3.2 14.5 0.00 0.10 0.00 62 1016.1
20260508182540 22 229 3.2 14.5 0.00 0.10 0.00 60 1016.0
20260508182036 22 106 4.8 14.5 0.00 0.10 0.00 61 1016.0
20260508181552 22 120 4.8 12.9 0.00 0.10 0.00 64 1016.1
20260508181039 22 40 3.2 12.9 0.00 0.10 0.00 63 1016.2
20260508180537 22 195 3.2 14.5 0.00 0.10 0.00 61 1016.2
20260508180053 22 70 4.8 14.5 0.00 0.10 0.00 61 1016.4
20260508175537 22 198 3.2 12.9 0.00 0.10 0.00 60 1016.4
20260508175037 22 50 4.8 12.9 0.00 0.10 0.00 60 1016.4
20260508174609 22 179 3.2 14.5 0.00 0.10 0.00 58 1016.3
20260508174038 22 172 3.2 14.5 0.00 0.10 0.00 61 1016.5
20260508173537 22 195 3.2 11.3 0.00 0.10 0.00 56 1016.4
20260508173048 22 61 1.6 11.3 0.00 0.10 0.00 59 1016.4
20260508172536 22 168 4.8 11.3 0.00 0.10 0.00 57 1016.6
20260508172038 22 194 3.2 12.9 0.00 0.10 0.00 60 1016.7
20260508171547 22 147 3.2 12.9 0.00 0.10 0.00 56 1016.6
20260508171040 22 189 3.2 12.9 0.00 0.10 0.00 57 1016.7
20260508170537 22 165 3.2 14.5 0.00 0.10 0.00 58 1016.7
20260508170052 22 192 3.2 16.1 0.00 0.10 0.00 57 1016.7
20260508165536 22 163 1.6 16.1 0.00 0.10 0.00 58 1016.5
20260508165037 22 196 4.8 16.1 0.00 0.10 0.00 52 1016.5
20260508164547 22 185 3.2 12.9 0.00 0.10 0.00 60 1016.6
20260508164037 23 121 3.2 12.9 0.00 0.10 0.00 54 1016.8
20260508163536 22 150 3.2 11.3 0.00 0.10 0.00 52 1016.8
20260508163048 22 90 3.2 11.3 0.00 0.10 0.00 50 1016.9
20260508162537 22 350 1.6 9.7 0.00 0.10 0.00 51 1017.0
20260508162037 22 66 1.6 9.7 0.00 0.10 0.00 51 1017.0
20260508161548 22 130 3.2 14.5 0.00 0.10 0.00 53 1017.1
20260508161037 22 111 3.2 14.5 0.00 0.10 0.00 53 1017.3
20260508160536 21 28 3.2 14.5 0.00 0.10 0.00 50 1017.3
20260508160053 21 89 3.2 11.3 0.00 0.10 0.00 52 1017.3
20260508155539 21 98 1.6 11.3 0.00 0.10 0.00 52 1017.5
20260508155036 21 117 1.6 9.7 0.00 0.10 0.00 53 1017.6
20260508154553 20 91 1.6 9.7 0.00 0.10 0.00 55 1017.7
20260508154036 21 59 1.6 11.3 0.00 0.10 0.00 54 1017.7
20260508153539 20 113 3.2 12.9 0.00 0.10 0.00 54 1017.6
20260508153050 20 84 4.8 12.9 0.00 0.10 0.00 53 1017.6
20260508152536 21 19 4.8 12.9 0.00 0.10 0.00 54 1017.6
20260508152040 21 138 3.2 12.9 0.00 0.10 0.00 53 1017.7
20260508151558 20 45 4.8 12.9 0.00 0.10 0.00 56 1017.5
20260508151037 20 84 3.2 9.7 0.00 0.10 0.00 55 1017.5